This is the latest recevied weather packets stored in our database for station/object SQ2WB-13. If no packets are shown the sender has not sent any weather packets the latest 10 day(s).
| Time | Temp. | Humidity | Pressure | Rain* | Wind** | Luminosity | Snow |
|---|---|---|---|---|---|---|---|
| 1787733001 | 20.56° C | 70% | 1014.5 hPa | 0 mm | - | - | - |
| 1787732102 | 20.56° C | 71% | 1014.5 hPa | 0 mm | - | - | - |
| 1787731202 | 20.56° C | 73% | 1014.5 hPa | 0 mm | - | - | - |
| 1787730301 | 20° C | 72% | 1014.5 hPa | 0 mm | - | - | - |
| 1787729402 | 18.89° C | 77% | 1014.2 hPa | 0 mm | - | - | - |
| 1787728502 | 17.78° C | 83% | 1014.2 hPa | 0 mm | - | - | - |
| 1787727602 | 17.78° C | 83% | 1014.2 hPa | 0 mm | - | - | - |
| 1787726701 | 16.67° C | 84% | 1014.2 hPa | 0 mm | - | - | - |
| 1787725802 | 16.67° C | 88% | 1014.2 hPa | 0 mm | - | - | - |
| 1787724902 | 15.56° C | 93% | 1014.2 hPa | 0 mm | - | - | - |
| 1787724002 | 15° C | 99% | 1014.2 hPa | 0 mm | - | - | - |
| 1787723101 | 13.89° C | 99% | 1014.2 hPa | 0 mm | - | - | - |
| 1787722202 | 12.78° C | 99% | 1014.2 hPa | 0 mm | - | - | - |
| 1787721302 | 11.67° C | 99% | 1014.2 hPa | 0 mm | - | - | - |
| 1787720401 | 10.56° C | 99% | 1014.2 hPa | 0 mm | - | - | - |
| 1787719501 | 10.56° C | 99% | 1014.2 hPa | 0 mm | - | - | - |
| 1787718604 | 10° C | 99% | 1014.2 hPa | 0 mm | - | - | - |
| 1787717705 | 10° C | 99% | 1014.2 hPa | 0 mm | - | - | - |
| 1787716801 | 10° C | 99% | 1014.2 hPa | 0 mm | - | - | - |
| 1787715905 | 10° C | 99% | 1013.8 hPa | 0 mm | - | - | - |
| 1787715002 | 10.56° C | 99% | 1013.8 hPa | 0 mm | - | - | - |
| 1787714102 | 10.56° C | 99% | 1013.8 hPa | 0 mm | - | - | - |
| 1787713202 | 10.56° C | 99% | 1013.8 hPa | 0 mm | - | - | - |
| 1787712301 | 10.56° C | 99% | 1013.8 hPa | 0 mm | - | - | - |
| 1787711402 | 10.56° C | 99% | 1013.8 hPa | 0 mm | - | - | - |
* Rain latest hour (hover to see other rain measurements)
** Current wind speed in m/s (hover to see current wind gust speed)